KOREASAT 5 (MUGUNGWHA 5)

Last updated on Jan. 17, 2021, 6:29 a.m. UTC

1 29349U 06034A   21016.77202204 -.00000363  00000-0  00000-0 0  9997
2 29349   0.0229 100.2594 0000165 165.7901 241.3344  1.00272761 21497
UTC
Height (km)
Latitude
Longitude
Inclination
Orbital Period
UTC large
Height (km)
Speed (km/s)
/
Latitude / Longitude
Inclination (degrees)
Orbital Period (minutes)
Azimuth
Elevation
Range (km)
Doppler Factor
iOS Compass Heading
iOS Angle

Next 30 passes for location: Hong Kong

Rise time Rise Azimuth (degrees) Set time Set Azimuth (degrees) Duration Max altitude (degrees)

No matching passes for this satellites